GW1985 Weather Reports


Display with metric or nautical units.
time (UTC)temp
F
wind
direction
speed
MPH
gust
MPH
rain 1hr
in
rain 24hr
in
rain mn
in
humidity
%
barometer
mb
20260502204252 66 221 2.0 2.0 0.00 0.00 0.00 36 1014.0
20260502203750 65 243 1.0 3.0 0.00 0.00 0.00 36 1014.3
20260502203248 66 282 5.0 6.0 0.00 0.00 0.00 36 1014.3
20260502202742 66 224 3.0 3.0 0.00 0.00 0.00 36 1014.4
20260502202240 65 234 6.0 9.0 0.00 0.00 0.00 36 1014.7
20260502201738 66 277 7.0 8.0 0.00 0.00 0.00 35 1014.5
20260502201234 65 250 5.0 6.0 0.00 0.00 0.00 36 1014.9
20260502200730 66 211 3.0 5.0 0.00 0.00 0.00 37 1014.8
20260502200226 65 273 5.0 7.0 0.00 0.00 0.00 37 1015.0
20260502195725 64 234 1.0 2.0 0.00 0.00 0.00 38 1015.1
20260502195221 65 251 3.0 3.0 0.00 0.00 0.00 37 1015.1
20260502194717 64 263 5.0 7.0 0.00 0.00 0.00 36 1015.4
20260502194215 63 200 5.0 7.0 0.00 0.00 0.00 38 1015.5
20260502193710 64 220 0.0 0.0 0.00 0.00 0.00 37 1015.5
20260502193209 64 267 3.0 7.0 0.00 0.00 0.00 35 1015.7
20260502192703 63 189 1.0 1.0 0.00 0.00 0.00 37 1015.5
20260502192201 63 249 4.0 5.0 0.00 0.00 0.00 36 1015.5
20260502191657 63 229 2.0 2.0 0.00 0.00 0.00 38 1015.9
20260502191155 63 256 3.0 5.0 0.00 0.00 0.00 37 1016.3
20260502190652 64 177 2.0 3.0 0.00 0.00 0.00 36 1016.1
20260502190150 63 182 4.0 6.0 0.00 0.00 0.00 36 1016.2
20260502185644 63 228 4.0 7.0 0.00 0.00 0.00 38 1016.2
20260502185141 63 220 5.0 9.0 0.00 0.00 0.00 37 1016.3
20260502184637 62 166 2.0 2.0 0.00 0.00 0.00 38 1016.4
20260502184133 62 220 7.0 8.0 0.00 0.00 0.00 37 1016.5
20260502183630 62 170 5.0 7.0 0.00 0.00 0.00 37 1016.6
20260502183126 62 215 3.0 5.0 0.00 0.00 0.00 38 1017.0
20260502182621 61 168 1.0 2.0 0.00 0.00 0.00 37 1016.9
20260502182117 61 229 0.0 0.0 0.00 0.00 0.00 38 1016.9
20260502181615 61 175 1.0 1.0 0.00 0.00 0.00 38 1017.1
20260502181114 60 202 2.0 3.0 0.00 0.00 0.00 39 1017.1
20260502180610 61 156 1.0 2.0 0.00 0.00 0.00 40 1017.4
20260502180108 60 186 3.0 5.0 0.00 0.00 0.00 38 1017.3
20260502164008 56 257 4.0 6.0 0.00 0.00 0.00 41 1018.5
20260502163503 57 278 9.0 11.0 0.00 0.00 0.00 39 1018.5
20260502163001 56 171 0.0 1.0 0.00 0.00 0.00 42 1018.6
20260502162457 56 226 4.0 5.0 0.00 0.00 0.00 40 1018.9
20260502161954 55 276 4.0 7.0 0.00 0.00 0.00 42 1018.8
20260502161450 55 261 5.0 6.0 0.00 0.00 0.00 41 1019.1
20260502160949 55 277 4.0 5.0 0.00 0.00 0.00 41 1019.0
20260502160446 55 235 3.0 3.0 0.00 0.00 0.00 41 1018.9
20260502151935 53 313 2.0 3.0 0.00 0.00 0.00 46 1019.5
20260502151432 53 270 4.0 6.0 0.00 0.00 0.00 46 1019.5
20260502150930 53 304 6.0 8.0 0.00 0.00 0.00 46 1019.5
20260502150426 53 236 3.0 5.0 0.00 0.00 0.00 45 1019.7
20260502130312 45 284 0.0 0.0 0.00 0.00 0.00 60 1020.2
20260502123757 44 276 0.0 0.0 0.00 0.00 0.00 63 1020.2
20260502123254 43 249 0.0 0.0 0.00 0.00 0.00 64 1020.1
20260502122751 42 291 0.0 0.0 0.00 0.00 0.00 66 1020.2
20260502122247 42 265 0.0 0.0 0.00 0.00 0.00 66 1020.1
20260502121745 42 245 0.0 0.0 0.00 0.00 0.00 67 1020.1
20260502121243 41 256 0.0 0.0 0.00 0.00 0.00 68 1020.2
20260502120739 41 319 0.0 0.0 0.00 0.00 0.00 69 1020.1
20260502120236 40 293 0.0 0.0 0.00 0.00 0.00 70 1020.1
20260502115734 40 272 0.0 0.0 0.00 0.00 0.00 70 1020.2
20260502115231 39 248 0.0 0.0 0.00 0.00 0.00 70 1020.0
20260502114726 39 269 0.0 0.0 0.00 0.00 0.00 70 1020.0
20260502114224 39 262 0.0 0.0 0.00 0.00 0.00 71 1020.1
20260502113721 39 279 0.0 0.0 0.00 0.00 0.00 72 1020.0
20260502113219 39 271 0.0 1.0 0.00 0.00 0.00 71 1020.0
20260502112716 38 255 0.0 0.0 0.00 0.00 0.00 72 1020.0
20260502112214 38 244 0.0 0.0 0.00 0.00 0.00 72 1020.0
20260502111711 39 279 0.0 0.0 0.00 0.00 0.00 71 1020.0
20260502111209 39 245 0.0 0.0 0.00 0.00 0.00 70 1020.0
20260502110706 39 286 2.0 3.0 0.00 0.00 0.00 70 1019.9
20260502110203 38 259 0.0 0.0 0.00 0.00 0.00 71 1019.9
20260502105701 37 216 0.0 0.0 0.00 0.00 0.00 72 1019.9
20260502105157 37 203 0.0 0.0 0.00 0.00 0.00 72 1019.9
20260502104655 37 217 0.0 0.0 0.00 0.00 0.00 72 1019.7
20260502104153 37 203 0.0 0.0 0.00 0.00 0.00 72 1019.9
20260502103650 37 208 0.0 0.0 0.00 0.00 0.00 71 1019.7
20260502103148 37 221 0.0 0.0 0.00 0.00 0.00 71 1019.7
20260502102644 37 209 0.0 0.0 0.00 0.00 0.00 71 1020.0
20260502102141 37 199 0.0 0.0 0.00 0.00 0.00 72 1019.7
20260502101639 37 199 0.0 0.0 0.00 0.00 0.00 72 1019.8
20260502101137 37 199 0.0 0.0 0.00 0.00 0.00 72 1019.9
20260502100635 37 199 0.0 0.0 0.00 0.00 0.00 71 1019.7
20260502100133 38 204 0.0 0.0 0.00 0.00 0.00 70 1019.8
20260502091107 39 202 0.0 0.0 0.00 0.00 0.00 68 1019.6
20260502090604 39 202 0.0 0.0 0.00 0.00 0.00 66 1019.6
20260502071458 43 259 2.0 2.0 0.00 0.00 0.00 57 1019.9
20260502070956 43 242 1.0 3.0 0.00 0.00 0.00 56 1020.0
20260502070454 44 252 0.0 0.0 0.00 0.00 0.00 56 1019.8
20260502065953 44 255 1.0 2.0 0.00 0.00 0.00 56 1020.0
20260502065451 44 216 0.0 0.0 0.00 0.00 0.00 55 1020.1
20260502064948 44 264 0.0 2.0 0.00 0.00 0.00 55 1020.0
20260502064446 44 250 0.0 0.0 0.00 0.00 0.00 55 1020.1
20260502063943 44 231 0.0 0.0 0.00 0.00 0.00 57 1020.1
20260502063441 44 263 0.0 0.0 0.00 0.00 0.00 55 1020.0
20260502062938 44 268 2.0 5.0 0.00 0.00 0.00 55 1020.2
20260502062435 44 251 3.0 3.0 0.00 0.00 0.00 54 1020.1
20260502061934 44 240 1.0 2.0 0.00 0.00 0.00 54 1020.1
20260502061431 44 245 0.0 0.0 0.00 0.00 0.00 54 1020.3
20260502060927 44 251 0.0 0.0 0.00 0.00 0.00 54 1020.1
20260502060422 44 285 1.0 5.0 0.00 0.00 0.00 55 1020.2
20260502055920 44 242 2.0 3.0 0.00 0.00 0.00 54 1020.0
20260502055417 44 239 1.0 2.0 0.00 0.00 0.00 54 1020.3
20260502054912 44 226 0.0 0.0 0.00 0.00 0.00 55 1020.2
20260502054409 44 253 0.0 1.0 0.00 0.00 0.00 55 1020.2
20260502053906 45 242 1.0 3.0 0.00 0.00 0.00 54 1020.2
20260502053404 45 261 1.0 1.0 0.00 0.00 0.00 54 1020.2
20260502052900 45 301 1.0 3.0 0.00 0.00 0.00 54 1020.3
20260502052359 45 254 0.0 0.0 0.00 0.00 0.00 53 1020.2
20260502051856 45 268 3.0 6.0 0.00 0.00 0.00 54 1020.0
20260502051355 45 245 2.0 2.0 0.00 0.00 0.00 53 1020.2
20260502050851 45 245 0.0 0.0 0.00 0.00 0.00 55 1020.1
20260502050347 45 244 0.0 0.0 0.00 0.00 0.00 54 1020.2
20260502045844 45 236 1.0 2.0 0.00 0.00 0.00 54 1020.1
20260502045341 45 257 2.0 3.0 0.00 0.00 0.00 54 1020.4
20260502044838 45 269 3.0 3.0 0.00 0.00 0.00 54 1020.4
20260502044334 44 232 1.0 1.0 0.00 0.00 0.00 55 1020.2
20260502043831 43 247 2.0 2.0 0.00 0.00 0.00 57 1020.2
20260502043328 42 218 1.0 2.0 0.00 0.00 0.00 58 1020.2
20260502042823 42 190 0.0 0.0 0.00 0.00 0.00 60 1020.2
20260502042320 41 220 0.0 0.0 0.00 0.00 0.00 61 1020.2
20260502041818 41 220 0.0 0.0 0.00 0.00 0.00 60 1020.1
20260502041315 41 220 0.0 0.0 0.00 0.00 0.00 61 1020.0
20260502040812 40 220 0.0 0.0 0.00 0.00 0.00 62 1020.2
20260502040308 41 220 0.0 0.0 0.00 0.00 0.00 60 1020.0
20260502035804 41 220 0.0 0.0 0.00 0.00 0.00 59 1020.3
20260502035301 42 220 0.0 0.0 0.00 0.00 0.00 59 1020.1
20260502034759 42 220 0.0 0.0 0.00 0.00 0.00 58 1020.1
20260502034257 42 220 0.0 0.0 0.00 0.00 0.00 59 1020.3
20260502033755 41 220 0.0 0.0 0.00 0.00 0.00 59 1020.3
20260502033252 41 220 0.0 0.0 0.00 0.00 0.00 60 1020.2
20260502032749 42 220 0.0 0.0 0.00 0.00 0.00 60 1020.0
20260502032245 42 220 0.0 0.0 0.00 0.00 0.00 58 1020.2
20260502031743 42 220 0.0 0.0 0.00 0.00 0.00 58 1020.2
20260502031240 43 220 0.0 0.0 0.00 0.00 0.00 56 1020.1
20260502030739 43 220 0.0 0.0 0.00 0.00 0.00 57 1020.2
20260502030237 44 220 0.0 0.0 0.00 0.00 0.00 55 1020.1
20260502025734 44 220 0.0 0.0 0.00 0.00 0.00 55 1020.2
20260502025232 44 220 0.0 0.0 0.00 0.00 0.00 55 1020.2
20260502024729 44 220 0.0 0.0 0.00 0.00 0.00 55 1020.2
20260502024227 44 220 0.0 0.0 0.00 0.00 0.00 54 1020.2
20260502023725 45 221 0.0 0.0 0.00 0.00 0.00 54 1020.2
20260502023222 46 221 0.0 0.0 0.00 0.00 0.00 49 1020.3
20260502022720 45 221 0.0 0.0 0.00 0.00 0.00 49 1020.3
20260502022216 45 226 0.0 0.0 0.00 0.00 0.00 49 1020.1
20260502021713 44 226 0.0 0.0 0.00 0.00 0.00 54 1020.1
20260502021210 44 226 0.0 0.0 0.00 0.00 0.00 53 1020.0
20260502020707 44 226 0.0 0.0 0.00 0.00 0.00 52 1020.2
20260502020204 45 226 0.0 0.0 0.00 0.00 0.00 52 1019.9
20260502015703 45 226 0.0 0.0 0.00 0.00 0.00 51 1019.8
20260502015158 46 226 0.0 0.0 0.00 0.00 0.00 50 1019.7
20260502014656 46 226 0.0 0.0 0.00 0.00 0.00 48 1019.8
20260502014153 47 226 0.0 0.0 0.00 0.00 0.00 48 1019.6
20260502013649 48 226 0.0 0.0 0.00 0.00 0.00 48 1019.6
20260502013144 48 226 0.0 0.0 0.00 0.00 0.00 45 1019.6
20260502012642 49 227 0.0 0.0 0.00 0.00 0.00 43 1019.7
20260502012140 50 238 0.0 0.0 0.00 0.00 0.00 42 1019.6
20260502011636 50 222 0.0 0.0 0.00 0.00 0.00 42 1019.6
20260502011132 50 261 0.0 0.0 0.00 0.00 0.00 42 1019.6
20260502010630 51 247 0.0 0.0 0.00 0.00 0.00 41 1019.6
20260502010126 51 318 4.0 6.0 0.00 0.00 0.00 39 1019.7
20260502005623 51 296 0.0 0.0 0.00 0.00 0.00 40 1019.4
20260502005121 51 228 1.0 2.0 0.00 0.00 0.00 39 1019.6
20260502004617 51 315 0.0 0.0 0.00 0.00 0.00 40 1019.5
20260502004114 51 278 0.0 0.0 0.00 0.00 0.00 38 1019.6
20260502003612 51 277 3.0 5.0 0.00 0.00 0.00 38 1019.6
20260502003108 52 334 13.0 15.0 0.00 0.00 0.00 37 1019.5
20260502002604 52 269 4.0 8.0 0.00 0.00 0.00 37 1019.6
20260502002102 52 352 2.0 2.0 0.00 0.00 0.00 36 1019.6
20260502001600 53 320 5.0 6.0 0.00 0.00 0.00 35 1019.5
20260502001056 53 305 2.0 5.0 0.00 0.00 0.00 37 1019.5
20260502000555 53 334 4.0 5.0 0.00 0.00 0.00 37 1019.7
20260502000052 53 279 0.0 0.0 0.00 0.00 0.00 38 1019.5
20260501235547 52 248 0.0 0.0 0.00 0.00 0.00 38 1019.5
20260501235043 52 311 0.0 1.0 0.00 0.00 0.00 38 1019.6
20260501234539 52 323 4.0 5.0 0.00 0.00 0.00 37 1019.5
20260501234038 54 278 0.0 0.0 0.00 0.00 0.00 37 1019.4
20260501233535 53 340 0.0 0.0 0.00 0.00 0.00 37 1019.3
20260501233032 54 248 1.0 2.0 0.00 0.00 0.00 37 1019.4
20260501232528 53 304 4.0 5.0 0.00 0.00 0.00 36 1019.4
20260501232025 53 267 5.0 6.0 0.00 0.00 0.00 37 1019.6
20260501231523 54 257 0.0 0.0 0.00 0.00 0.00 38 1019.4
20260501231021 53 290 3.0 5.0 0.00 0.00 0.00 37 1019.6
20260501230520 53 285 3.0 3.0 0.00 0.00 0.00 37 1019.7
20260501230017 53 314 9.0 13.0 0.00 0.00 0.00 37 1019.5
20260501225515 54 19 6.0 8.0 0.00 0.00 0.00 37 1019.6
20260501225010 52 272 0.0 0.0 0.00 0.00 0.00 38 1019.4
20260501224508 52 205 1.0 1.0 0.00 0.00 0.00 36 1019.6
20260501224005 52 355 2.0 2.0 0.00 0.00 0.00 36 1019.7
20260501223502 51 344 3.0 3.0 0.00 0.00 0.00 38 1019.6
20260501222957 51 352 4.0 5.0 0.00 0.00 0.00 38 1019.7
20260501222454 51 341 2.0 2.0 0.00 0.00 0.00 40 1019.9
20260501221950 50 293 5.0 7.0 0.00 0.00 0.00 39 1019.7
20260501221447 51 294 5.0 6.0 0.00 0.00 0.00 39 1019.8
20260501220946 51 302 4.0 6.0 0.00 0.00 0.00 38 1019.6
20260501220443 51 310 3.0 3.0 0.00 0.00 0.00 38 1019.7
20260501215938 51 314 2.0 2.0 0.00 0.00 0.00 38 1019.7
20260501215436 50 347 3.0 5.0 0.00 0.00 0.00 39 1019.8
20260501214931 51 329 4.0 5.0 0.00 0.00 0.00 39 1019.8
20260501214427 51 5 2.0 3.0 0.00 0.00 0.00 39 1019.6
20260501213922 51 6 4.0 7.0 0.00 0.00 0.00 38 1019.7
20260501213420 52 310 0.0 0.0 0.00 0.00 0.00 37 1019.6
20260501212915 52 225 0.0 0.0 0.00 0.00 0.00 38 1019.7
20260501212412 51 69 4.0 6.0 0.00 0.00 0.00 39 1019.8
20260501211909 50 348 3.0 3.0 0.00 0.00 0.00 40 1019.8
20260501211406 52 345 7.0 8.0 0.00 0.00 0.00 38 1019.9
20260501210904 51 3 2.0 3.0 0.00 0.00 0.00 39 1019.9
20260501210400 54 296 7.0 9.0 0.00 0.00 0.00 37 1019.9
20260501205857 54 271 3.0 5.0 0.00 0.00 0.00 37 1019.8
20260501205354 53 248 0.0 0.0 0.00 0.00 0.00 39 1019.8
20260501204851 51 202 1.0 1.0 0.00 0.00 0.00 38 1019.9